Year,Month,Day,Hour,Minute,Value (Times are PST for temperature in C)
2015,06,11,00,00,18.30
2015,06,11,00,01,18.30
2015,06,11,00,02,18.20
2015,06,11,00,03,18.20
2015,06,11,00,04,18.20
2015,06,11,00,05,18.20
2015,06,11,00,06,18.20
2015,06,11,00,07,18.20
2015,06,11,00,08,18.20
2015,06,11,00,09,18.10
2015,06,11,00,10,18.10
2015,06,11,00,11,18.10
2015,06,11,00,12,18.10
2015,06,11,00,13,18.10
2015,06,11,00,14,18.10
2015,06,11,00,15,18.10
2015,06,11,00,16,18.00
2015,06,11,00,17,18.00
2015,06,11,00,18,18.00
2015,06,11,00,19,17.90
2015,06,11,00,20,18.00
2015,06,11,00,21,18.00
2015,06,11,00,22,18.00
2015,06,11,00,23,18.00
2015,06,11,00,24,18.00
2015,06,11,00,25,18.00
2015,06,11,00,26,18.00
2015,06,11,00,27,17.90
2015,06,11,00,28,17.90
2015,06,11,00,29,17.90
2015,06,11,00,30,17.90
2015,06,11,00,31,17.90
2015,06,11,00,32,17.90
2015,06,11,00,33,17.90
2015,06,11,00,34,17.90
2015,06,11,00,35,17.90
2015,06,11,00,36,17.90
2015,06,11,00,37,17.80
2015,06,11,00,38,17.80
2015,06,11,00,39,17.80
2015,06,11,00,40,17.80
2015,06,11,00,41,17.80
2015,06,11,00,42,17.80
2015,06,11,00,43,17.80
2015,06,11,00,44,17.80
2015,06,11,00,45,17.70
2015,06,11,00,46,17.70
2015,06,11,00,47,17.70
2015,06,11,00,48,17.70
2015,06,11,00,49,17.70
2015,06,11,00,50,17.70
2015,06,11,00,51,17.70
2015,06,11,00,52,17.70
2015,06,11,00,53,17.70
2015,06,11,00,54,17.60
2015,06,11,00,55,17.60
2015,06,11,00,56,17.60
2015,06,11,00,57,17.60
2015,06,11,00,58,17.60
2015,06,11,00,59,17.60
2015,06,11,01,00,17.60
2015,06,11,01,01,17.50
2015,06,11,01,02,17.50
2015,06,11,01,03,17.50
2015,06,11,01,04,17.50
2015,06,11,01,05,17.50
2015,06,11,01,06,17.40
2015,06,11,01,07,17.40
2015,06,11,01,08,17.40
2015,06,11,01,09,17.40
2015,06,11,01,10,17.40
2015,06,11,01,11,17.30
2015,06,11,01,12,17.30
2015,06,11,01,13,17.30
2015,06,11,01,14,17.30
2015,06,11,01,15,17.30
2015,06,11,01,16,17.30
2015,06,11,01,17,17.20
2015,06,11,01,18,17.20
2015,06,11,01,19,17.20
2015,06,11,01,20,17.20
2015,06,11,01,21,17.20
2015,06,11,01,22,17.20
2015,06,11,01,23,17.10
2015,06,11,01,24,17.10
2015,06,11,01,25,17.10
2015,06,11,01,26,17.10
2015,06,11,01,27,17.10
2015,06,11,01,28,17.10
2015,06,11,01,29,17.10
2015,06,11,01,30,17.00
2015,06,11,01,31,17.00
2015,06,11,01,32,17.00
2015,06,11,01,33,17.00
2015,06,11,01,34,16.90
2015,06,11,01,35,16.90
2015,06,11,01,36,16.90
2015,06,11,01,37,16.90
2015,06,11,01,38,16.90
2015,06,11,01,39,16.90
2015,06,11,01,40,16.90
2015,06,11,01,41,16.90
2015,06,11,01,42,16.90
2015,06,11,01,43,16.80
2015,06,11,01,44,16.80
2015,06,11,01,45,16.80
2015,06,11,01,46,16.80
2015,06,11,01,47,16.80
2015,06,11,01,48,16.80
2015,06,11,01,49,16.80
2015,06,11,01,50,16.80
2015,06,11,01,51,16.80
2015,06,11,01,52,16.80
2015,06,11,01,53,16.80
2015,06,11,01,54,16.80
2015,06,11,01,55,16.80
2015,06,11,01,56,16.80
2015,06,11,01,57,16.80
2015,06,11,01,58,16.80
2015,06,11,01,59,16.80
2015,06,11,02,00,16.80
2015,06,11,02,01,16.70
2015,06,11,02,02,16.70
2015,06,11,02,03,16.70
2015,06,11,02,04,16.70
2015,06,11,02,05,16.70
2015,06,11,02,06,16.70
2015,06,11,02,07,16.60
2015,06,11,02,08,16.60
2015,06,11,02,09,16.60
2015,06,11,02,10,16.60
2015,06,11,02,11,16.60
2015,06,11,02,12,16.60
2015,06,11,02,13,16.60
2015,06,11,02,14,16.60
2015,06,11,02,15,16.60
2015,06,11,02,16,16.60
2015,06,11,02,17,16.60
2015,06,11,02,18,16.60
2015,06,11,02,19,16.60
2015,06,11,02,20,16.60
2015,06,11,02,21,16.60
2015,06,11,02,22,16.60
2015,06,11,02,23,16.60
2015,06,11,02,24,16.60
2015,06,11,02,25,16.60
2015,06,11,02,26,16.60
2015,06,11,02,27,16.60
2015,06,11,02,28,16.60
2015,06,11,02,29,16.60
2015,06,11,02,30,16.60
2015,06,11,02,31,16.60
2015,06,11,02,32,16.60
2015,06,11,02,33,16.60
2015,06,11,02,34,16.50
2015,06,11,02,35,16.50
2015,06,11,02,36,16.50
2015,06,11,02,37,16.50
2015,06,11,02,38,16.50
2015,06,11,02,39,16.50
2015,06,11,02,40,16.50
2015,06,11,02,41,16.40
2015,06,11,02,42,16.40
2015,06,11,02,43,16.40
2015,06,11,02,44,16.40
2015,06,11,02,45,16.40
2015,06,11,02,46,16.30
2015,06,11,02,47,16.30
2015,06,11,02,48,16.30
2015,06,11,02,49,16.30
2015,06,11,02,50,16.30
2015,06,11,02,51,16.30
2015,06,11,02,52,16.30
2015,06,11,02,53,16.30
2015,06,11,02,54,16.30
2015,06,11,02,55,16.30
2015,06,11,02,56,16.30
2015,06,11,02,57,16.20
2015,06,11,02,58,16.20
2015,06,11,02,59,16.20
2015,06,11,03,00,16.20
2015,06,11,03,01,16.20
2015,06,11,03,02,16.20
2015,06,11,03,03,16.20
2015,06,11,03,04,16.20
2015,06,11,03,05,16.20
2015,06,11,03,06,16.20
2015,06,11,03,07,16.10
2015,06,11,03,08,16.10
2015,06,11,03,09,16.10
2015,06,11,03,10,16.10
2015,06,11,03,11,16.10
2015,06,11,03,12,16.10
2015,06,11,03,13,16.10
2015,06,11,03,14,16.00
2015,06,11,03,15,16.00
2015,06,11,03,16,16.00
2015,06,11,03,17,16.00
2015,06,11,03,18,15.90
2015,06,11,03,19,15.90
2015,06,11,03,20,15.90
2015,06,11,03,21,15.90
2015,06,11,03,22,15.90
2015,06,11,03,23,15.90
2015,06,11,03,24,15.90
2015,06,11,03,25,15.90
2015,06,11,03,26,15.90
2015,06,11,03,27,15.80
2015,06,11,03,28,15.80
2015,06,11,03,29,15.80
2015,06,11,03,30,15.80
2015,06,11,03,31,15.80
2015,06,11,03,32,15.80
2015,06,11,03,33,15.80
2015,06,11,03,34,15.80
2015,06,11,03,35,15.80
2015,06,11,03,36,15.80
2015,06,11,03,37,15.80
2015,06,11,03,38,15.80
2015,06,11,03,39,15.80
2015,06,11,03,40,15.80
2015,06,11,03,41,15.80
2015,06,11,03,42,15.80
2015,06,11,03,43,15.80
2015,06,11,03,44,15.80
2015,06,11,03,45,15.80
2015,06,11,03,46,15.80
2015,06,11,03,47,15.70
2015,06,11,03,48,15.70
2015,06,11,03,49,15.70
2015,06,11,03,50,15.70
2015,06,11,03,51,15.70
2015,06,11,03,52,15.70
2015,06,11,03,53,15.70
2015,06,11,03,54,15.70
2015,06,11,03,55,15.70
2015,06,11,03,56,15.70
2015,06,11,03,57,15.70
2015,06,11,03,58,15.60
2015,06,11,03,59,15.60
2015,06,11,04,00,15.60
2015,06,11,04,01,15.60
2015,06,11,04,02,15.60
2015,06,11,04,03,15.60
2015,06,11,04,04,15.60
2015,06,11,04,05,15.60
2015,06,11,04,06,15.60
2015,06,11,04,07,15.60
2015,06,11,04,08,15.70
2015,06,11,04,09,15.70
2015,06,11,04,10,15.70
2015,06,11,04,11,15.70
2015,06,11,04,12,15.70
2015,06,11,04,13,15.70
2015,06,11,04,14,15.70
2015,06,11,04,15,15.70
2015,06,11,04,16,15.60
2015,06,11,04,17,15.60
2015,06,11,04,18,15.60
2015,06,11,04,19,15.60
2015,06,11,04,20,15.60
2015,06,11,04,21,15.60
2015,06,11,04,22,15.60
2015,06,11,04,23,15.60
2015,06,11,04,24,15.50
2015,06,11,04,25,15.50
2015,06,11,04,26,15.50
2015,06,11,04,27,15.50
2015,06,11,04,28,15.50
2015,06,11,04,29,15.50
2015,06,11,04,30,15.50
2015,06,11,04,31,15.50
2015,06,11,04,32,15.40
2015,06,11,04,33,15.40
2015,06,11,04,34,15.40
2015,06,11,04,35,15.50
2015,06,11,04,36,15.40
2015,06,11,04,37,15.40
2015,06,11,04,38,15.40
2015,06,11,04,39,15.40
2015,06,11,04,40,15.40
2015,06,11,04,41,15.40
2015,06,11,04,42,15.40
2015,06,11,04,43,15.40
2015,06,11,04,44,15.40
2015,06,11,04,45,15.40
2015,06,11,04,46,15.30
2015,06,11,04,47,15.30
2015,06,11,04,48,15.30
2015,06,11,04,49,15.30
2015,06,11,04,50,15.30
2015,06,11,04,51,15.20
2015,06,11,04,52,15.20
2015,06,11,04,53,15.20
2015,06,11,04,54,15.20
2015,06,11,04,55,15.20
2015,06,11,04,56,15.20
2015,06,11,04,57,15.10
2015,06,11,04,58,15.10
2015,06,11,04,59,15.10
2015,06,11,05,00,15.10
2015,06,11,05,01,15.00
2015,06,11,05,02,15.00
2015,06,11,05,03,15.00
2015,06,11,05,04,15.00
2015,06,11,05,05,14.90
2015,06,11,05,06,14.90
2015,06,11,05,07,14.90
2015,06,11,05,08,14.90
2015,06,11,05,09,14.80
2015,06,11,05,10,14.80
2015,06,11,05,11,14.80
2015,06,11,05,12,14.80
2015,06,11,05,13,14.80
2015,06,11,05,14,14.80
2015,06,11,05,15,14.80
2015,06,11,05,16,14.80
2015,06,11,05,17,14.80
2015,06,11,05,18,14.80
2015,06,11,05,19,14.80
2015,06,11,05,20,14.80
2015,06,11,05,21,14.80
2015,06,11,05,22,14.80
2015,06,11,05,23,14.80
2015,06,11,05,24,14.80
2015,06,11,05,25,14.80
2015,06,11,05,26,14.80
2015,06,11,05,27,14.80
2015,06,11,05,28,14.80
2015,06,11,05,29,14.80
2015,06,11,05,30,14.80
2015,06,11,05,31,14.80
2015,06,11,05,32,14.80
2015,06,11,05,33,14.80
2015,06,11,05,34,14.80
2015,06,11,05,35,14.70
2015,06,11,05,36,14.70
2015,06,11,05,37,14.70
2015,06,11,05,38,14.70
2015,06,11,05,39,14.70
2015,06,11,05,40,14.70
2015,06,11,05,41,14.70
2015,06,11,05,42,14.70
2015,06,11,05,43,14.70
2015,06,11,05,44,14.60
2015,06,11,05,45,14.60
2015,06,11,05,46,14.60
2015,06,11,05,47,14.60
2015,06,11,05,48,14.70
2015,06,11,05,49,14.70
2015,06,11,05,50,14.70
2015,06,11,05,51,14.70
2015,06,11,05,52,14.70
2015,06,11,05,53,14.70
2015,06,11,05,54,14.70
2015,06,11,05,55,14.70
2015,06,11,05,56,14.70
2015,06,11,05,57,14.80
2015,06,11,05,58,14.80
2015,06,11,05,59,14.80
2015,06,11,06,00,14.80
2015,06,11,06,01,14.80
2015,06,11,06,02,14.80
2015,06,11,06,03,14.80
2015,06,11,06,04,14.80
2015,06,11,06,05,14.80
2015,06,11,06,06,14.80
2015,06,11,06,07,14.90
2015,06,11,06,08,14.90
2015,06,11,06,09,14.90
2015,06,11,06,10,14.90
2015,06,11,06,11,14.90
2015,06,11,06,12,15.00
2015,06,11,06,13,15.00
2015,06,11,06,14,15.00
2015,06,11,06,15,15.00
2015,06,11,06,16,15.00
2015,06,11,06,17,15.00
2015,06,11,06,18,15.00
2015,06,11,06,19,14.90
2015,06,11,06,20,15.00
2015,06,11,06,21,15.00
2015,06,11,06,22,14.90
2015,06,11,06,23,14.90
2015,06,11,06,24,14.90
2015,06,11,06,25,14.90
2015,06,11,06,26,14.90
2015,06,11,06,27,15.00
2015,06,11,06,28,15.00
2015,06,11,06,29,15.00
2015,06,11,06,30,15.00
2015,06,11,06,31,15.00
2015,06,11,06,32,15.10
2015,06,11,06,33,15.10
2015,06,11,06,34,15.10
2015,06,11,06,35,15.10
2015,06,11,06,36,15.10
2015,06,11,06,37,15.10
2015,06,11,06,38,15.10
2015,06,11,06,39,15.20
2015,06,11,06,40,15.20
2015,06,11,06,41,15.20
2015,06,11,06,42,15.20
2015,06,11,06,43,15.20
2015,06,11,06,44,15.30
2015,06,11,06,45,15.30
2015,06,11,06,46,15.30
2015,06,11,06,47,15.30
2015,06,11,06,48,15.30
2015,06,11,06,49,15.30
2015,06,11,06,50,15.30
2015,06,11,06,51,15.30
2015,06,11,06,52,15.30
2015,06,11,06,53,15.30
2015,06,11,06,54,15.30
2015,06,11,06,55,15.30
2015,06,11,06,56,15.30
2015,06,11,06,57,15.30
2015,06,11,06,58,15.30
2015,06,11,06,59,15.30
2015,06,11,07,00,15.30
2015,06,11,07,01,15.30
2015,06,11,07,02,15.30
2015,06,11,07,03,15.40
2015,06,11,07,04,15.40
2015,06,11,07,05,15.40
2015,06,11,07,06,15.40
2015,06,11,07,07,15.40
2015,06,11,07,08,15.50
2015,06,11,07,09,15.50
2015,06,11,07,10,15.60
2015,06,11,07,11,15.60
2015,06,11,07,12,15.60
2015,06,11,07,13,15.60
2015,06,11,07,14,15.60
2015,06,11,07,15,15.60
2015,06,11,07,16,15.60
2015,06,11,07,17,15.60
2015,06,11,07,18,15.60
2015,06,11,07,19,15.60
2015,06,11,07,20,15.60
2015,06,11,07,21,15.70
2015,06,11,07,22,15.70
2015,06,11,07,23,15.70
2015,06,11,07,24,15.70
2015,06,11,07,25,15.80
2015,06,11,07,26,15.80
2015,06,11,07,27,15.80
2015,06,11,07,28,15.80
2015,06,11,07,29,15.80
2015,06,11,07,30,15.80
2015,06,11,07,31,15.90
2015,06,11,07,32,15.90
2015,06,11,07,33,15.90
2015,06,11,07,34,15.90
2015,06,11,07,35,15.90
2015,06,11,07,36,15.90
2015,06,11,07,37,15.90
2015,06,11,07,38,16.00
2015,06,11,07,39,16.00
2015,06,11,07,40,16.10
2015,06,11,07,41,16.10
2015,06,11,07,42,16.20
2015,06,11,07,43,16.20
2015,06,11,07,44,16.30
2015,06,11,07,45,16.30
2015,06,11,07,46,16.40
2015,06,11,07,47,16.40
2015,06,11,07,48,16.40
2015,06,11,07,49,16.50
2015,06,11,07,50,16.50
2015,06,11,07,51,16.50
2015,06,11,07,52,16.50
2015,06,11,07,53,16.50
2015,06,11,07,54,16.50
2015,06,11,07,55,16.50
2015,06,11,07,56,16.50
2015,06,11,07,57,16.50
2015,06,11,07,58,16.50
2015,06,11,07,59,16.60
2015,06,11,08,00,16.60
2015,06,11,08,01,16.60
2015,06,11,08,02,16.60
2015,06,11,08,03,16.60
2015,06,11,08,04,16.60
2015,06,11,08,05,16.60
2015,06,11,08,06,16.70
2015,06,11,08,07,16.70
2015,06,11,08,08,16.70
2015,06,11,08,09,16.70
2015,06,11,08,10,16.80
2015,06,11,08,11,16.80
2015,06,11,08,12,16.80
2015,06,11,08,13,16.80
2015,06,11,08,14,16.90
2015,06,11,08,15,16.90
2015,06,11,08,16,16.90
2015,06,11,08,17,16.90
2015,06,11,08,18,16.90
2015,06,11,08,19,16.90
2015,06,11,08,20,16.80
2015,06,11,08,21,16.80
2015,06,11,08,22,16.70
2015,06,11,08,23,16.70
2015,06,11,08,24,16.70
2015,06,11,08,25,16.70
2015,06,11,08,26,16.70
2015,06,11,08,27,16.80
2015,06,11,08,28,16.80
2015,06,11,08,29,16.80
2015,06,11,08,30,16.80
2015,06,11,08,31,16.90
2015,06,11,08,32,16.90
2015,06,11,08,33,16.90
2015,06,11,08,34,16.90
2015,06,11,08,35,16.90
2015,06,11,08,36,16.90
2015,06,11,08,37,17.00
2015,06,11,08,38,17.00
2015,06,11,08,39,17.10
2015,06,11,08,40,17.10
2015,06,11,08,41,17.10
2015,06,11,08,42,17.10
2015,06,11,08,43,17.20
2015,06,11,08,44,17.20
2015,06,11,08,45,17.20
2015,06,11,08,46,17.20
2015,06,11,08,47,17.10
2015,06,11,08,48,17.10
2015,06,11,08,49,17.00
2015,06,11,08,50,17.00
2015,06,11,08,51,16.90
2015,06,11,08,52,16.90
2015,06,11,08,53,16.80
2015,06,11,08,54,16.90
2015,06,11,08,55,16.80
2015,06,11,08,56,16.90
2015,06,11,08,57,16.90
2015,06,11,08,58,16.90
2015,06,11,08,59,16.90
2015,06,11,09,00,16.90
2015,06,11,09,01,16.90
2015,06,11,09,02,16.90
2015,06,11,09,03,16.90
2015,06,11,09,04,16.90
2015,06,11,09,05,16.90
2015,06,11,09,06,17.00
2015,06,11,09,07,17.00
2015,06,11,09,08,17.10
2015,06,11,09,09,17.20
2015,06,11,09,10,17.20
2015,06,11,09,11,17.30
2015,06,11,09,12,17.30
2015,06,11,09,13,17.30
2015,06,11,09,14,17.30
2015,06,11,09,15,17.30
2015,06,11,09,16,17.30
2015,06,11,09,17,17.30
2015,06,11,09,18,17.30
2015,06,11,09,19,17.30
2015,06,11,09,20,17.30
2015,06,11,09,21,17.40
2015,06,11,09,22,17.40
2015,06,11,09,23,17.40
2015,06,11,09,24,17.40
2015,06,11,09,25,17.50
2015,06,11,09,26,17.60
2015,06,11,09,27,17.60
2015,06,11,09,28,17.70
2015,06,11,09,29,17.70
2015,06,11,09,30,17.80
2015,06,11,09,31,17.70
2015,06,11,09,32,17.70
2015,06,11,09,33,17.70
2015,06,11,09,34,17.70
2015,06,11,09,35,17.80
2015,06,11,09,36,17.80
2015,06,11,09,37,17.80
2015,06,11,09,38,17.80
2015,06,11,09,39,17.70
2015,06,11,09,40,17.70
2015,06,11,09,41,17.70
2015,06,11,09,42,17.70
2015,06,11,09,43,17.70
2015,06,11,09,44,17.70
2015,06,11,09,45,17.70
2015,06,11,09,46,17.80
2015,06,11,09,47,17.80
2015,06,11,09,48,17.80
2015,06,11,09,49,17.80
2015,06,11,09,50,17.90
2015,06,11,09,51,17.90
2015,06,11,09,52,18.00
2015,06,11,09,53,18.10
2015,06,11,09,54,18.20
2015,06,11,09,55,18.20
2015,06,11,09,56,18.20
2015,06,11,09,57,18.20
2015,06,11,09,58,18.20
2015,06,11,09,59,18.20
2015,06,11,10,00,18.20
2015,06,11,10,01,18.30
2015,06,11,10,02,18.30
2015,06,11,10,03,18.40
2015,06,11,10,04,18.50
2015,06,11,10,05,18.50
2015,06,11,10,06,18.40
2015,06,11,10,07,18.40
2015,06,11,10,08,18.50
2015,06,11,10,09,18.50
2015,06,11,10,10,18.60
2015,06,11,10,11,18.70
2015,06,11,10,12,18.80
2015,06,11,10,13,18.80
2015,06,11,10,14,18.80
2015,06,11,10,15,18.80
2015,06,11,10,16,18.80
2015,06,11,10,17,18.80
2015,06,11,10,18,18.80
2015,06,11,10,19,18.70
2015,06,11,10,20,18.70
2015,06,11,10,21,18.70
2015,06,11,10,22,18.70
2015,06,11,10,23,18.70
2015,06,11,10,24,18.60
2015,06,11,10,25,18.60
2015,06,11,10,26,18.60
2015,06,11,10,27,18.60
2015,06,11,10,28,18.60
2015,06,11,10,29,18.60
2015,06,11,10,30,18.50
2015,06,11,10,31,18.40
2015,06,11,10,32,18.40
2015,06,11,10,33,18.40
2015,06,11,10,34,18.40
2015,06,11,10,35,18.30
2015,06,11,10,36,18.30
2015,06,11,10,37,18.30
2015,06,11,10,38,18.30
2015,06,11,10,39,18.30
2015,06,11,10,40,18.20
2015,06,11,10,41,18.20
2015,06,11,10,42,18.20
2015,06,11,10,43,18.10
2015,06,11,10,44,18.00
2015,06,11,10,45,18.00
2015,06,11,10,46,18.00
2015,06,11,10,47,18.00
2015,06,11,10,48,18.00
2015,06,11,10,49,18.00
2015,06,11,10,50,18.00
2015,06,11,10,51,17.90
2015,06,11,10,52,18.00
2015,06,11,10,53,18.00
2015,06,11,10,54,18.00
2015,06,11,10,55,18.10
2015,06,11,10,56,18.10
2015,06,11,10,57,18.10
2015,06,11,10,58,18.10
2015,06,11,10,59,18.10
2015,06,11,11,00,18.10
2015,06,11,11,01,18.10
2015,06,11,11,02,18.10
2015,06,11,11,03,18.10
2015,06,11,11,04,18.00
2015,06,11,11,05,17.90
2015,06,11,11,06,17.80
2015,06,11,11,07,17.70
2015,06,11,11,08,17.70
2015,06,11,11,09,17.70
2015,06,11,11,10,17.70
2015,06,11,11,11,17.70
2015,06,11,11,12,17.60
2015,06,11,11,13,17.70
2015,06,11,11,14,17.70
2015,06,11,11,15,17.70
2015,06,11,11,16,17.70
2015,06,11,11,17,17.70
2015,06,11,11,18,17.70
2015,06,11,11,19,17.70
2015,06,11,11,20,17.80
2015,06,11,11,21,17.80
2015,06,11,11,22,17.80
2015,06,11,11,23,17.80
2015,06,11,11,24,17.80
2015,06,11,11,25,17.80
2015,06,11,11,26,17.80
2015,06,11,11,27,17.80
2015,06,11,11,28,17.90
2015,06,11,11,29,18.00
2015,06,11,11,30,18.10
2015,06,11,11,31,18.20
2015,06,11,11,32,18.30
2015,06,11,11,33,18.40
2015,06,11,11,34,18.40
2015,06,11,11,35,18.50
2015,06,11,11,36,18.50
2015,06,11,11,37,18.50
2015,06,11,11,38,18.50
2015,06,11,11,39,18.60
2015,06,11,11,40,18.60
2015,06,11,11,41,18.60
2015,06,11,11,42,18.60
2015,06,11,11,43,18.60
2015,06,11,11,44,18.60
2015,06,11,11,45,18.60
2015,06,11,11,46,18.60
2015,06,11,11,47,18.60
2015,06,11,11,48,18.70
2015,06,11,11,49,18.70
2015,06,11,11,50,18.70
2015,06,11,11,51,18.70
2015,06,11,11,52,18.80
2015,06,11,11,53,18.80
2015,06,11,11,54,18.80
2015,06,11,11,55,18.80
2015,06,11,11,56,18.70
2015,06,11,11,57,18.60
2015,06,11,11,58,18.60
2015,06,11,11,59,18.50
2015,06,11,12,00,18.50
2015,06,11,12,01,18.50
2015,06,11,12,02,18.50
2015,06,11,12,03,18.50
2015,06,11,12,04,18.60
2015,06,11,12,05,18.70
2015,06,11,12,06,18.70
2015,06,11,12,07,18.80
2015,06,11,12,08,18.80
2015,06,11,12,09,18.80
2015,06,11,12,10,18.80
2015,06,11,12,11,18.90
2015,06,11,12,12,18.90
2015,06,11,12,13,19.00
2015,06,11,12,14,19.00
2015,06,11,12,15,18.90
2015,06,11,12,16,18.90
2015,06,11,12,17,18.80
2015,06,11,12,18,18.80
2015,06,11,12,19,18.90
2015,06,11,12,20,18.90
2015,06,11,12,21,18.90
2015,06,11,12,22,18.90
2015,06,11,12,23,18.90
2015,06,11,12,24,18.90
2015,06,11,12,25,18.90
2015,06,11,12,26,18.90
2015,06,11,12,27,18.90
2015,06,11,12,28,18.90
2015,06,11,12,29,18.90
2015,06,11,12,30,18.90
2015,06,11,12,31,18.80
2015,06,11,12,32,18.80
2015,06,11,12,33,18.80
2015,06,11,12,34,18.80
2015,06,11,12,35,18.80
2015,06,11,12,36,18.80
2015,06,11,12,37,18.80
2015,06,11,12,38,18.80
2015,06,11,12,39,18.90
2015,06,11,12,40,18.90
2015,06,11,12,41,18.90
2015,06,11,12,42,18.90
2015,06,11,12,43,18.90
2015,06,11,12,44,18.90
2015,06,11,12,45,18.90
2015,06,11,12,46,18.90
2015,06,11,12,47,18.90
2015,06,11,12,48,18.90
2015,06,11,12,49,18.90
2015,06,11,12,50,19.00
2015,06,11,12,51,19.00
2015,06,11,12,52,19.10
2015,06,11,12,53,19.10
2015,06,11,12,54,19.20
2015,06,11,12,55,19.30
2015,06,11,12,56,19.30
2015,06,11,12,57,19.40
2015,06,11,12,58,19.50
2015,06,11,12,59,19.50
2015,06,11,13,00,19.60
2015,06,11,13,01,19.60
2015,06,11,13,02,19.60
2015,06,11,13,03,19.60
2015,06,11,13,04,19.60
2015,06,11,13,05,19.70
2015,06,11,13,06,19.70
2015,06,11,13,07,19.60
2015,06,11,13,08,19.60
2015,06,11,13,09,19.60
2015,06,11,13,10,19.60
2015,06,11,13,11,19.50
2015,06,11,13,12,19.50
2015,06,11,13,13,19.50
2015,06,11,13,14,19.60
2015,06,11,13,15,19.60
2015,06,11,13,16,19.70
2015,06,11,13,17,19.70
2015,06,11,13,18,19.70
2015,06,11,13,19,19.80
2015,06,11,13,20,19.80
2015,06,11,13,21,19.80
2015,06,11,13,22,19.70
2015,06,11,13,23,19.70
2015,06,11,13,24,19.70
2015,06,11,13,25,19.80
2015,06,11,13,26,19.80
2015,06,11,13,27,19.80
2015,06,11,13,28,19.80
2015,06,11,13,29,19.80
2015,06,11,13,30,19.80
2015,06,11,13,31,19.90
2015,06,11,13,32,19.90
2015,06,11,13,33,19.90
2015,06,11,13,34,19.90
2015,06,11,13,35,19.90
2015,06,11,13,36,19.90
2015,06,11,13,37,19.90
2015,06,11,13,38,20.00
2015,06,11,13,39,19.90
2015,06,11,13,40,19.90
2015,06,11,13,41,19.90
2015,06,11,13,42,20.00
2015,06,11,13,43,19.90
2015,06,11,13,44,19.90
2015,06,11,13,45,19.90
2015,06,11,13,46,19.90
2015,06,11,13,47,19.80
2015,06,11,13,48,19.70
2015,06,11,13,49,19.70
2015,06,11,13,50,19.60
2015,06,11,13,51,19.50
2015,06,11,13,52,19.40
2015,06,11,13,53,19.40
2015,06,11,13,54,19.40
2015,06,11,13,55,19.40
2015,06,11,13,56,19.50
2015,06,11,13,57,19.50
2015,06,11,13,58,19.50
2015,06,11,13,59,19.50
2015,06,11,14,00,19.40
2015,06,11,14,01,19.40
2015,06,11,14,02,19.40
2015,06,11,14,03,19.50
2015,06,11,14,04,19.60
2015,06,11,14,05,19.70
2015,06,11,14,06,19.80
2015,06,11,14,07,19.90
2015,06,11,14,08,19.90
2015,06,11,14,09,19.80
2015,06,11,14,10,19.80
2015,06,11,14,11,19.80
2015,06,11,14,12,19.80
2015,06,11,14,13,19.70
2015,06,11,14,14,19.80
2015,06,11,14,15,19.80
2015,06,11,14,16,19.80
2015,06,11,14,17,19.80
2015,06,11,14,18,19.90
2015,06,11,14,19,19.90
2015,06,11,14,20,19.90
2015,06,11,14,21,19.90
2015,06,11,14,22,19.90
2015,06,11,14,23,20.00
2015,06,11,14,24,20.10
2015,06,11,14,25,20.10
2015,06,11,14,26,20.20
2015,06,11,14,27,20.20
2015,06,11,14,28,20.20
2015,06,11,14,29,20.30
2015,06,11,14,30,20.30
2015,06,11,14,31,20.40
2015,06,11,14,32,20.40
2015,06,11,14,33,20.40
2015,06,11,14,34,20.50
2015,06,11,14,35,20.50
2015,06,11,14,36,20.50
2015,06,11,14,37,20.50
2015,06,11,14,38,20.40
2015,06,11,14,39,20.30
2015,06,11,14,40,20.40
2015,06,11,14,41,20.40
2015,06,11,14,42,20.40
2015,06,11,14,43,20.40
2015,06,11,14,44,20.50
2015,06,11,14,45,20.60
2015,06,11,14,46,20.70
2015,06,11,14,47,20.70
2015,06,11,14,48,20.80
2015,06,11,14,49,20.80
2015,06,11,14,50,20.80
2015,06,11,14,51,20.80
2015,06,11,14,52,20.80
2015,06,11,14,53,20.80
2015,06,11,14,54,20.80
2015,06,11,14,55,20.80
2015,06,11,14,56,20.70
2015,06,11,14,57,20.70
2015,06,11,14,58,20.60
2015,06,11,14,59,20.60
2015,06,11,15,00,20.60
2015,06,11,15,01,20.50
2015,06,11,15,02,20.40
2015,06,11,15,03,20.40
2015,06,11,15,04,20.40
2015,06,11,15,05,20.40
2015,06,11,15,06,20.50
2015,06,11,15,07,20.50
2015,06,11,15,08,20.60
2015,06,11,15,09,20.70
2015,06,11,15,10,20.70
2015,06,11,15,11,20.70
2015,06,11,15,12,20.70
2015,06,11,15,13,20.70
2015,06,11,15,14,20.70
2015,06,11,15,15,20.60
2015,06,11,15,16,20.60
2015,06,11,15,17,20.60
2015,06,11,15,18,20.70
2015,06,11,15,19,20.70
2015,06,11,15,20,20.70
2015,06,11,15,21,20.80
2015,06,11,15,22,20.70
2015,06,11,15,23,20.70
2015,06,11,15,24,20.70
2015,06,11,15,25,20.70
2015,06,11,15,26,20.70
2015,06,11,15,27,20.70
2015,06,11,15,28,20.70
2015,06,11,15,29,20.70
2015,06,11,15,30,20.70
2015,06,11,15,31,20.70
2015,06,11,15,32,20.60
2015,06,11,15,33,20.60
2015,06,11,15,34,20.50
2015,06,11,15,35,20.40
2015,06,11,15,36,20.40
2015,06,11,15,37,20.50
2015,06,11,15,38,20.50
2015,06,11,15,39,20.50
2015,06,11,15,40,20.40
2015,06,11,15,41,20.40
2015,06,11,15,42,20.40
2015,06,11,15,43,20.40
2015,06,11,15,44,20.40
2015,06,11,15,45,20.50
2015,06,11,15,46,20.50
2015,06,11,15,47,20.60
2015,06,11,15,48,20.70
2015,06,11,15,49,20.70
2015,06,11,15,50,20.70
2015,06,11,15,51,20.70
2015,06,11,15,52,20.80
2015,06,11,15,53,20.80
2015,06,11,15,54,20.90
2015,06,11,15,55,20.90
2015,06,11,15,56,20.90
2015,06,11,15,57,20.80
2015,06,11,15,58,20.60
2015,06,11,15,59,20.50
2015,06,11,16,00,20.30
2015,06,11,16,01,20.20
2015,06,11,16,02,20.10
2015,06,11,16,03,20.10
2015,06,11,16,04,20.10
2015,06,11,16,05,20.10
2015,06,11,16,06,20.20
2015,06,11,16,07,20.20
2015,06,11,16,08,20.30
2015,06,11,16,09,20.30
2015,06,11,16,10,20.40
2015,06,11,16,11,20.50
2015,06,11,16,12,20.40
2015,06,11,16,13,20.50
2015,06,11,16,14,20.50
2015,06,11,16,15,20.60
2015,06,11,16,16,20.70
2015,06,11,16,17,20.80
2015,06,11,16,18,20.90
2015,06,11,16,19,20.90
2015,06,11,16,20,20.80
2015,06,11,16,21,20.80
2015,06,11,16,22,20.80
2015,06,11,16,23,20.70
2015,06,11,16,24,20.80
2015,06,11,16,25,20.80
2015,06,11,16,26,20.80
2015,06,11,16,27,20.80
2015,06,11,16,28,20.80
2015,06,11,16,29,20.80
2015,06,11,16,30,20.80
2015,06,11,16,31,20.80
2015,06,11,16,32,20.90
2015,06,11,16,33,20.90
2015,06,11,16,34,20.90
2015,06,11,16,35,20.80
2015,06,11,16,36,20.80
2015,06,11,16,37,20.70
2015,06,11,16,38,20.70
2015,06,11,16,39,20.70
2015,06,11,16,40,20.80
2015,06,11,16,41,20.80
2015,06,11,16,42,20.80
2015,06,11,16,43,20.80
2015,06,11,16,44,20.90
2015,06,11,16,45,20.90
2015,06,11,16,46,21.00
2015,06,11,16,47,21.10
2015,06,11,16,48,21.10
2015,06,11,16,49,21.10
2015,06,11,16,50,21.20
2015,06,11,16,51,21.20
2015,06,11,16,52,21.10
2015,06,11,16,53,21.10
2015,06,11,16,54,21.10
2015,06,11,16,55,21.10
2015,06,11,16,56,21.10
2015,06,11,16,57,21.10
2015,06,11,16,58,21.20
2015,06,11,16,59,21.30
2015,06,11,17,00,21.30
2015,06,11,17,01,21.40
2015,06,11,17,02,21.50
2015,06,11,17,03,21.60
2015,06,11,17,04,21.60
2015,06,11,17,05,21.50
2015,06,11,17,06,21.50
2015,06,11,17,07,21.50
2015,06,11,17,08,21.50
2015,06,11,17,09,21.60
2015,06,11,17,10,21.60
2015,06,11,17,11,21.70
2015,06,11,17,12,21.70
2015,06,11,17,13,21.70
2015,06,11,17,14,21.70
2015,06,11,17,15,21.70
2015,06,11,17,16,21.70
2015,06,11,17,17,21.70
2015,06,11,17,18,21.70
2015,06,11,17,19,21.70